Погода в Песчанке

Украина / Винницкая область     48°12′20″N   28°53′20″E
темп.,
°C
ветер,
м/с
пор.,
м/с
влажн.,
%
обл.,
%
осадки,
мм/ч
давл.,
гПа
погр.,
м
19 сентября, вс
вс1900:00+12зсз38845 0.0 1009172
03:00+10з36935 0.0 1010117
06:00+10з359250 0.0 100988
09:00+14зюз347119 0.0 1008315
12:00+18юз5753100 0.5 10071281
15:00+12зсз896573 1.5 1010607
18:00+8зсз61178100 0.1 1011656
21:00+9з5977100 0.1 1011932
20 сентября, пн
пн2000:00+8з51076100 0.0 10111023
03:00+8з61181100 0.0 10111049
06:00+7з61179100 0.0 1012859
09:00+7з61083100 0.1 1012729
12:00+9з6977100 0.0 1014775
15:00+9зсз6873100 0.0 1014861
18:00+8сз6976100 0.0 1014754
21:00+8зсз5972100 0.0 10161171
21 сентября, вт
вт2100:00+7зсз61072100 0.0 1017908
03:00+6зсз61172100 0.0 1017922
06:00+6зсз71176100 0.0 10171028
09:00+5зсз71284100 0.0 1019856
12:00+7сз81070100 0.0 1020948
15:00+10зсз81057100 0.0 10191274
18:00+8сз71058100 0.0 10201419
21:00+7сз61066100 0.0 1021870
22 сентября, ср
ср2200:00+6сз6982100 0.0 1022841
03:00+6сз51081100 0.0 1021855
06:00+6сз5977100 0.0 1020862
09:00+6зсз4884100 0.4 1020992
12:00+7сз6781100 0.1 1019966
15:00+7сз5875100 0.3 1018948
18:00+9ссз4760100 0.1 10171267
21:00+7с357399 0.1 1018193
23 сентября, чт
чт2300:00+6ссз2284100 0.0 101727
03:00+6сз4681100 0.1 1016901
06:00+5ссз4589100 0.3 1016930
09:00+6ссз4786100 0.4 1016705
12:00+8сз3472100 0.1 1016867
15:00+10зсз4460100 0.4 10161065
18:00+9зсз446384 0.1 1016857
21:00+6зсз22825 0.1 101721